Seattle Boeing, WA

4:32 PM PDT on June 18, 2018 (GMT -0700)
Boeing Field-King County International

Weather History for KBFI - October, 2017

Change the Weather History Date:

Tuesday, October 24, 2017

  Actual Average Record
Temperature  
Mean Temperature 56 °F -  
Max Temperature 66 °F 58 °F 72 °F (1965)
Min Temperature 46 °F 44 °F 33 °F (1954)
Degree Days  
Heating Degree Days 9    
Growing Degree Days 6 (Base 50)    
Moisture  
Dew Point 47 °F    
Average Humidity 79    
Maximum Humidity 93    
Minimum Humidity 48    
Precipitation  
Precipitation 0.00 in - - ()
Sea Level Pressure  
Sea Level Pressure 30.42 in    
Wind  
Wind Speed 3 mph (NW)    
Max Wind Speed 13 mph    
Max Gust Speed -    
Visibility 10 miles    
Events      
Averages and records for this station are not official NWS values.
T = Trace of Precipitation, MM = Missing Value Source: NWS Daily Summary

Daily Weather History Graph

Daily Weather History Graph

Search for Another Location

Airport or City:

Astronomy

Oct. 24, 2017 Rise Set
Actual Time 7:41 AM PDT 6:04 PM PDT
Civil Twilight 7:10 AM PDT 6:35 PM PDT
Nautical Twilight 6:34 AM PDT 7:11 PM PDT
Astronomical Twilight 5:58 AM PDT 7:47 PM PDT
Moon 12:16 PM PDT (10/24) 9:31 PM PDT (10/24)
Length of Visible Light 11h 25m
Length of Day
10h 22m
Waxing Crescent, 22% of the Moon is Illuminated
Oct 24
Waxing Crescent
Oct 27
First Quarter
Nov 3
Full
Nov 10
Last Quarter
Nov 18
New

Hourly Weather History & Observations

Time (PDT) Temp. Dew Point Humidity Pressure Visibility Wind Dir Wind Speed Gust Speed Precip Events Conditions
12:53 AM 48.9 °F 46.0 °F 90% 30.61 in 10.0 mi Calm Calm - N/A   Clear
1:53 AM 50.0 °F 46.9 °F 89% 30.61 in 10.0 mi North 4.6 mph - N/A   Clear
2:53 AM 50.0 °F 46.0 °F 86% 30.61 in 10.0 mi NNW 3.5 mph - N/A   Clear
3:53 AM 48.9 °F 45.0 °F 86% 30.59 in 10.0 mi Calm Calm - N/A   Clear
4:53 AM 46.9 °F 45.0 °F 93% 30.58 in 10.0 mi Calm Calm - N/A   Clear
5:53 AM 48.0 °F 45.0 °F 89% 30.56 in 10.0 mi Calm Calm - N/A   Clear
6:53 AM 46.9 °F 45.0 °F 93% 30.54 in 10.0 mi Calm Calm - N/A   Clear
7:53 AM 48.9 °F 45.0 °F 86% 30.53 in 10.0 mi Calm Calm - N/A   Clear
8:53 AM 51.1 °F 45.0 °F 80% 30.51 in 10.0 mi Variable 3.5 mph - N/A   Partly Cloudy
9:53 AM 53.1 °F 46.0 °F 77% 30.50 in 10.0 mi Variable 3.5 mph - N/A   Clear
10:53 AM 54.0 °F 48.0 °F 80% 30.47 in 10.0 mi NW 6.9 mph - N/A   Clear
11:53 AM 55.0 °F 50.0 °F 83% 30.45 in 10.0 mi NNE 5.8 mph - N/A   Clear
12:53 PM 60.1 °F 50.0 °F 69% 30.41 in 10.0 mi WNW 12.7 mph - N/A   Clear
1:53 PM 61.0 °F 50.0 °F 67% 30.37 in 10.0 mi NW 9.2 mph - N/A   Clear
2:53 PM 61.0 °F 50.0 °F 67% 30.34 in 10.0 mi NW 9.2 mph - N/A   Clear
3:53 PM 66.0 °F 46.0 °F 48% 30.32 in 10.0 mi WNW 9.2 mph - N/A   Clear
4:53 PM 64.0 °F 50.0 °F 60% 30.30 in 10.0 mi WNW 10.4 mph - N/A   Clear
5:53 PM - 42.8 °F N/A% 30.29 in - North - - N/A   Unknown
6:53 PM 55.9 °F 46.9 °F 72% 30.26 in 10.0 mi NW 5.8 mph - N/A   Clear
7:53 PM 54.0 °F 46.0 °F 75% 30.26 in 10.0 mi Calm Calm - N/A   Clear
8:53 PM 53.1 °F 46.0 °F 77% 30.25 in 10.0 mi Calm Calm - N/A   Clear
9:53 PM 51.1 °F 46.9 °F 86% 30.23 in 10.0 mi Calm Calm - N/A   Clear
10:53 PM - - N/A% 30.24 in 10.0 mi NW 4.6 mph - N/A   Clear
11:53 PM - - N/A% 30.22 in 10.0 mi SSE 5.8 mph - N/A   Unknown